Location: Nijmegen RU
(51.8233°N, 354.1314°E)
Time: 13:20:38
(UTC+02:00)

Envisat - Pass Details

Date: 27 February 2019
Orbit: 764 x 766 km, 98.1° (Epoch: 23 October)

Event Time Altitude Azimuth Distance (km) Brightness Sun altitude
Rises 20:31:52 0° 185° (S) 3,220 6.2 -15.0°
Reaches altitude 10° 20:34:17 10° 193° (SSW) 2,298 5.5 -15.4°
Maximum altitude 20:39:03 41° 263° (W) 1,107 4.4 -16.1°
Drops below altitude 10° 20:43:52 10° 333° (NNW) 2,314 5.9 -16.9°
Sets 20:46:19 0° 341° (NNW) 3,245 6.6 -17.3°
